Simultaneous Nadir Overpasses (SNOs) Predictions

Prediction of SNOs between LANDSAT-8 and METOP-A Satellite Orbit:

Table of predicted SNOs for the next 14.0 days since TLE Epoch: 2/16/2016
Index Date (LANDSAT-8) Time (LANDSAT-8) Lat,Lon (LANDSAT-8) SZA (LANDSAT-8 ) Date (METOP-A) Time (METOP-A) Lat,Lon (METOP-A) SZA (METOP-A ) Distance(km) Time Diff (sec)
1 02/17/2016 08:57:52 -81.11, -95.01 85.16 02/17/2016 08:57:30 -81.11, -94.94 85.16 1.33 22
2 02/17/2016 09:47:17 81.14, 73.08 94.90 02/17/2016 09:48:09 81.14, 73.15 94.93 1.38 52
3 02/20/2016 04:32:04 -81.13, -28.22 86.10 02/20/2016 04:31:54 -81.13, -28.08 86.09 2.40 10
4 02/20/2016 05:21:30 81.14, 139.47 93.90 02/20/2016 05:22:34 81.14, 139.60 93.95 2.18 64
5 02/22/2016 23:16:50 81.10,-129.86 92.85 02/22/2016 23:15:40 81.09,-130.03 92.81 3.17 70
6
